When you browse on this site, cookies collect data to enhance your experience and personalize the content and advertising you see.
Visit our Privacy Policy to learn more. By continuing to use the site, you agree to this use of cookies and data.
  • In Netherlands
  • List of Countries
  • For 7 days
  • Water Temperature
  • Weather Map
  • Weather Widgets
  • user-avatar
    Login

    Hourly Weather Myshkino

    Today, 30 May, Saturday

    Time Temperature Precipitation Wind Pressure Humidity
    00:00 +14°C° 0 mm 5 mps 741 mmHg 92%
    01:00 +14°C° 0 mm 5 mps 741 mmHg 93%
    02:00 +14°C° 0 mm 5 mps 740 mmHg 93%
    03:00 +14°C° 0.4 mm 5 mps 740 mmHg 93%
    04:00 +14°C° 0.4 mm 5 mps 739 mmHg 94%
    05:00 +14°C° 0.4 mm 5 mps 739 mmHg 94%
    06:00 +14°C° 2.7 mm 6 mps 739 mmHg 94%
    07:00 +14°C° 2.7 mm 7 mps 738 mmHg 95%
    08:00 +13°C° 2.7 mm 8 mps 738 mmHg 95%
    09:00 +15°C° 0.1 mm 7 mps 737 mmHg 94%
    10:00 +16°C° 0.1 mm 7 mps 737 mmHg 93%
    11:00 +16°C° 0.1 mm 7 mps 737 mmHg 92%
    12:00 +17°C° 0.3 mm 8 mps 736 mmHg 92%
    13:00 +17°C° 0.3 mm 8 mps 736 mmHg 91%
    14:00 +18°C° 0.3 mm 9 mps 736 mmHg 90%
    15:00 +17°C° 2.8 mm 8 mps 736 mmHg 91%
    16:00 +17°C° 2.8 mm 8 mps 735 mmHg 92%
    17:00 +16°C° 2.8 mm 7 mps 735 mmHg 93%
    18:00 +16°C° 1.3 mm 6 mps 735 mmHg 94%
    19:00 +16°C° 1.3 mm 6 mps 736 mmHg 95%
    20:00 +15°C° 1.3 mm 5 mps 736 mmHg 96%
    21:00 +15°C° 2.1 mm 5 mps 736 mmHg 96%
    22:00 +15°C° 2.1 mm 4 mps 736 mmHg 96%
    23:00 +14°C° 2.1 mm 4 mps 736 mmHg 96%

    Tomorrow, 31 May, Sunday

    Time Temperature Precipitation Wind Pressure Humidity
    00:00 +14°C° 0.6 mm 3 mps 736 mmHg 97%
    01:00 +14°C° 0.6 mm 3 mps 737 mmHg 97%
    02:00 +13°C° 0.6 mm 3 mps 737 mmHg 97%
    03:00 +13°C° 0.1 mm 3 mps 737 mmHg 97%
    04:00 +13°C° 0.1 mm 3 mps 737 mmHg 97%
    05:00 +13°C° 0.1 mm 3 mps 737 mmHg 97%
    06:00 +13°C° 0.8 mm 4 mps 737 mmHg 95%
    07:00 +14°C° 0.8 mm 5 mps 738 mmHg 93%
    08:00 +14°C° 0.8 mm 6 mps 738 mmHg 91%
    09:00 +14°C° 0.4 mm 7 mps 739 mmHg 90%
    10:00 +13°C° 0.4 mm 8 mps 739 mmHg 89%
    11:00 +13°C° 0.4 mm 8 mps 740 mmHg 88%
    12:00 +12°C° 0.2 mm 8 mps 740 mmHg 89%
    13:00 +11°C° 0.2 mm 8 mps 740 mmHg 89%
    14:00 +10°C° 0.2 mm 8 mps 740 mmHg 89%
    15:00 +11°C° 0.3 mm 7 mps 741 mmHg 88%
    16:00 +11°C° 0.3 mm 6 mps 741 mmHg 86%
    17:00 +11°C° 0.3 mm 6 mps 741 mmHg 84%
    18:00 +12°C° 0.1 mm 5 mps 742 mmHg 84%
    19:00 +10°C° 0.1 mm 5 mps 742 mmHg 85%
    20:00 +9°C° 0.1 mm 5 mps 743 mmHg 85%
    21:00 +9°C° 0 mm 5 mps 743 mmHg 85%
    22:00 +8°C° 0 mm 5 mps 743 mmHg 85%
    23:00 +7°C° 0 mm 5 mps 743 mmHg 85%

    Day after tomorrow, 1 June, Monday

    Time Temperature Precipitation Wind Pressure Humidity
    00:00 +6°C° 0 mm 5 mps 743 mmHg 85%
    01:00 +5°C° 0 mm 5 mps 744 mmHg 85%
    02:00 +3°C° 0 mm 5 mps 744 mmHg 85%
    03:00 +5°C° 0 mm 5 mps 744 mmHg 84%
    04:00 +5°C° 0 mm 5 mps 744 mmHg 84%
    05:00 +5°C° 0 mm 5 mps 744 mmHg 84%
    06:00 +5°C° 0 mm 6 mps 744 mmHg 81%
    07:00 +7°C° 0 mm 6 mps 744 mmHg 78%
    08:00 +8°C° 0 mm 6 mps 745 mmHg 74%
    09:00 +9°C° 0.1 mm 6 mps 745 mmHg 71%
    10:00 +10°C° 0.1 mm 6 mps 745 mmHg 68%
    11:00 +10°C° 0.1 mm 6 mps 745 mmHg 65%
    12:00 +11°C° 0.1 mm 6 mps 745 mmHg 65%
    13:00 +11°C° 0.1 mm 6 mps 745 mmHg 64%
    14:00 +11°C° 0.1 mm 6 mps 745 mmHg 64%
    15:00 +11°C° 0.3 mm 6 mps 745 mmHg 68%
    16:00 +10°C° 0.3 mm 6 mps 745 mmHg 72%
    17:00 +10°C° 0.3 mm 6 mps 745 mmHg 76%
    18:00 +8°C° 0.1 mm 5 mps 745 mmHg 80%
    19:00 +7°C° 0.1 mm 4 mps 745 mmHg 85%
    20:00 +6°C° 0.1 mm 4 mps 745 mmHg 90%
    21:00 +5°C° 0 mm 4 mps 745 mmHg 92%
    22:00 +4°C° 0 mm 3 mps 745 mmHg 94%
    23:00 +3°C° 0 mm 3 mps 745 mmHg 96%

    2 June, Tuesday

    Time Temperature Precipitation Wind Pressure Humidity
    00:00 +4°C° 0 mm 3 mps 745 mmHg 95%
    01:00 +5°C° 0 mm 3 mps 745 mmHg 95%
    02:00 +5°C° 0 mm 3 mps 745 mmHg 94%
    03:00 +6°C° 0.1 mm 4 mps 745 mmHg 94%
    04:00 +6°C° 0.1 mm 4 mps 745 mmHg 93%
    05:00 +7°C° 0.1 mm 4 mps 745 mmHg 93%
    06:00 +7°C° 0.1 mm 4 mps 745 mmHg 91%
    07:00 +8°C° 0.1 mm 5 mps 745 mmHg 89%
    08:00 +9°C° 0.1 mm 5 mps 745 mmHg 87%
    09:00 +10°C° 0.2 mm 5 mps 745 mmHg 82%
    10:00 +12°C° 0.2 mm 5 mps 745 mmHg 77%
    11:00 +13°C° 0.2 mm 6 mps 745 mmHg 73%
    12:00 +14°C° 0.4 mm 6 mps 745 mmHg 73%
    13:00 +14°C° 0.4 mm 6 mps 744 mmHg 72%
    14:00 +15°C° 0.4 mm 6 mps 744 mmHg 72%
    15:00 +14°C° 0.3 mm 6 mps 744 mmHg 74%
    16:00 +14°C° 0.3 mm 5 mps 744 mmHg 76%
    17:00 +14°C° 0.3 mm 5 mps 744 mmHg 78%
    18:00 +13°C° 0.1 mm 5 mps 744 mmHg 81%
    19:00 +12°C° 0.1 mm 5 mps 744 mmHg 84%
    20:00 +10°C° 0.1 mm 5 mps 744 mmHg 87%
    21:00 +9°C° 0 mm 5 mps 743 mmHg 88%
    22:00 +8°C° 0 mm 5 mps 743 mmHg 89%
    23:00 +8°C° 0 mm 5 mps 743 mmHg 91%

    3 June, Wednesday

    Time Temperature Precipitation Wind Pressure Humidity
    00:00 +8°C° 0 mm 5 mps 743 mmHg 90%
    01:00 +8°C° 0 mm 5 mps 743 mmHg 89%
    02:00 +8°C° 0 mm 5 mps 742 mmHg 88%
    03:00 +8°C° 0 mm 6 mps 742 mmHg 87%
    04:00 +9°C° 0 mm 6 mps 742 mmHg 87%
    05:00 +9°C° 0 mm 6 mps 742 mmHg 86%
    06:00 +9°C° 0.2 mm 6 mps 742 mmHg 88%
    07:00 +9°C° 0.2 mm 6 mps 742 mmHg 89%
    08:00 +10°C° 0.2 mm 6 mps 742 mmHg 91%
    09:00 +10°C° 0.6 mm 6 mps 742 mmHg 91%
    10:00 +11°C° 0.6 mm 6 mps 742 mmHg 90%
    11:00 +12°C° 0.6 mm 5 mps 742 mmHg 90%
    12:00 +13°C° 0.6 mm 5 mps 741 mmHg 90%
    13:00 +14°C° 0.6 mm 4 mps 741 mmHg 90%
    14:00 +14°C° 0.6 mm 3 mps 741 mmHg 89%
    15:00 +15°C° 0.7 mm 4 mps 741 mmHg 88%
    16:00 +15°C° 0.7 mm 4 mps 741 mmHg 87%
    17:00 +17°C° 0.7 mm 4 mps 741 mmHg 86%
    18:00 +15°C° 0.3 mm 4 mps 741 mmHg 88%
    19:00 +14°C° 0.3 mm 3 mps 740 mmHg 90%
    20:00 +13°C° 0.3 mm 3 mps 740 mmHg 93%
    21:00 +13°C° 0 mm 3 mps 740 mmHg 94%
    22:00 +12°C° 0 mm 3 mps 740 mmHg 95%
    23:00 +12°C° 0 mm 3 mps 740 mmHg 96%

    4 June, Thursday

    Time Temperature Precipitation Wind Pressure Humidity
    00:00 +12°C° 0 mm 3 mps 740 mmHg 96%
    01:00 +12°C° 0 mm 3 mps 740 mmHg 97%
    02:00 +12°C° 0 mm 4 mps 739 mmHg 97%
    03:00 +12°C° 0.2 mm 4 mps 739 mmHg 97%
    04:00 +12°C° 0.2 mm 4 mps 739 mmHg 97%
    05:00 +12°C° 0.2 mm 4 mps 739 mmHg 97%
    06:00 +13°C° 0.5 mm 4 mps 738 mmHg 97%
    07:00 +13°C° 0.5 mm 4 mps 738 mmHg 97%
    08:00 +13°C° 0.5 mm 5 mps 738 mmHg 96%
    09:00 +14°C° 0.7 mm 5 mps 738 mmHg 96%
    10:00 +14°C° 0.7 mm 5 mps 738 mmHg 96%
    11:00 +14°C° 0.7 mm 5 mps 737 mmHg 95%
    12:00 +14°C° 1.8 mm 5 mps 737 mmHg 95%
    13:00 +14°C° 1.8 mm 5 mps 737 mmHg 95%
    14:00 +14°C° 1.8 mm 4 mps 736 mmHg 95%
    15:00 +14°C° 1 mm 4 mps 736 mmHg 95%
    16:00 +14°C° 1 mm 5 mps 736 mmHg 94%
    17:00 +15°C° 1 mm 5 mps 736 mmHg 94%
    18:00 +14°C° 0.7 mm 4 mps 736 mmHg 94%
    19:00 +14°C° 0.7 mm 4 mps 735 mmHg 95%
    20:00 +14°C° 0.7 mm 4 mps 735 mmHg 95%
    21:00 +13°C° 0.3 mm 4 mps 735 mmHg 96%
    22:00 +13°C° 0.3 mm 3 mps 735 mmHg 97%
    23:00 +13°C° 0.3 mm 3 mps 735 mmHg 97%
    Show more